Wind_Speed
12 11 11 10 10 10 10 10 10 10 9 9 10 10 10 11 11 10 10 10 10 11 10 11 11 11 12 13 14 14 14 14 14 15 15 15 15 15 16 16 16 16 15
12 12 11 11 11 10 10 10 10 10 11 11 11 11 12 12 11 11 10 11 11 12 12 12 12 13 13 14 14 14 14 15 15 16 16 16 16 16 16 16 16 16 16
13 13 13 12 12 12 11 11 11 11 12 12 12 12 12 13 13 12 12 12 12 12 13 13 13 13 13 14 14 14 15 15 16 16 16 17 17 17 17 17 17 17 17
14 13 13 13 13 13 13 13 12 12 13 13 13 13 13 13 12 13 13 13 13 13 13 13 14 14 14 14 14 15 15 16 16 17 17 17 18 18 18 18 18 18 18
15 15 15 15 14 14 13 13 13 13 13 13 14 14 14 13 13 13 14 14 14 14 14 13 14 14 15 15 15 15 15 16 17 18 18 18 18 19 18 18 18 19 19
16 16 16 16 16 15 15 14 14 14 14 14 14 14 14 14 14 15 15 15 15 15 15 15 15 16 16 16 16 16 16 17 18 18 19 19 19 20 19 19 19 19 19
16 16 16 16 17 17 17 16 16 16 15 16 16 15 15 15 15 15 15 15 15 15 16 16 16 17 17 17 17 17 18 18 19 20 20 20 20 20 20 20 20 20 20
15 16 16 16 16 17 17 17 17 17 17 17 17 17 17 17 16 17 17 16 16 17 17 16 17 17 17 17 18 18 19 20 21 21 21 21 21 21 21 21 21 21 21
15 16 16 17 17 18 18 17 17 18 18 18 18 18 19 18 18 18 18 17 17 17 17 17 18 18 18 18 19 19 20 21 21 22 22 22 22 22 22 22 21 22 22
16 16 16 17 18 18 18 18 18 18 19 20 20 20 20 19 19 19 19 18 18 18 19 19 19 19 19 19 20 21 21 22 23 23 22 22 22 23 23 22 22 23 22
17 17 17 18 17 18 18 19 19 19 19 20 20 20 21 21 21 20 20 20 20 20 20 20 20 21 21 21 21 22 23 24 24 23 23 23 24 24 23 23 23 23 23
18 18 18 19 18 19 19 20 20 20 21 21 21 21 22 23 22 22 22 22 21 22 22 22 22 22 23 23 23 24 24 25 25 25 24 24 24 23 23 23 23 24 23
19 19 19 19 19 20 20 20 21 21 21 21 22 22 23 23 23 23 23 23 23 23 23 23 24 24 24 25 25 25 25 26 26 25 25 24 23 23 23 23 23 24 24
20 21 20 19 20 21 21 21 23 22 22 22 22 22 23 23 23 23 23 23 23 24 24 24 24 25 25 26 26 26 27 26 26 26 25 24 24 24 24 23 23 24 24
21 21 21 21 20 21 21 22 23 23 23 23 23 23 23 24 25 24 24 24 24 25 25 25 26 26 26 26 26 26 27 26 26 26 26 26 26 25 25 24 24 24 25
21 21 21 22 22 21 22 23 23 23 24 24 24 24 25 25 25 25 25 25 25 26 26 26 26 27 27 27 28 28 27 27 27 26 27 27 27 26 27 27 27 27 27
21 22 22 23 23 23 23 24 24 25 25 25 25 26 26 26 26 26 26 26 25 26 26 27 27 28 28 28 28 29 29 28 28 28 27 27 28 28 29 28 28 28 28
22 22 23 23 23 23 23 24 25 26 26 26 26 27 27 27 27 27 28 27 27 27 28 28 28 29 29 29 29 29 29 29 28 28 28 28 28 29 29 29 29 29 30
23 23 23 24 24 24 24 24 25 26 26 26 27 27 28 28 28 28 29 28 28 28 29 29 29 30 30 30 30 30 30 30 30 30 29 29 30 30 30 31 31 31 30
23 23 24 25 25 25 25 25 25 26 26 27 27 28 27 28 28 28 28 28 28 29 30 30 30 31 31 31 31 32 32 32 32 31 31 31 31 31 32 32 32 31 31
24 24 25 25 26 25 25 25 25 26 26 27 27 28 28 28 28 28 28 29 30 30 30 31 31 31 32 32 33 33 33 32 32 32 32 31 31 31 32 32 32 32 32
25 25 26 26 26 26 25 25 26 26 27 27 28 28 28 28 28 29 29 30 30 30 30 31 31 32 32 32 32 32 32 32 32 32 32 31 31 31 30 30 30 31 32
25 26 27 27 27 27 27 26 27 27 28 28 29 29 29 29 29 29 30 30 31 31 31 31 31 32 32 31 31 31 32 31 31 31 32 32 32 32 32 32 31 31 32
25 26 27 28 28 28 28 27 28 28 29 29 29 29 29 30 30 31 31 31 31 31 31 31 32 32 32 31 31 31 31 31 31 31 32 33 34 34 33 33 32 33 32
27 27 27 27 27 28 28 28 29 29 30 30 30 30 30 30 30 30 31 30 30 31 31 31 32 32 32 31 31 32 31 31 31 32 33 33 33 33 33 33 33 33 33
27 28 28 28 28 28 29 29 29 30 30 30 31 30 31 30 30 30 30 30 30 31 31 31 32 32 31 31 31 31 31 32 32 33 32 32 32 32 32 32 32 32 32
Wind_Direction
267 270 269 267 267 266 265 266 265 266 269 275 278 277 279 283 284 285 287 286 286 288 289 288 286 284 277 276 275 276 277 275 276 278 280 281 281 283 283 283 283 282 281
266 267 265 264 265 267 267 265 264 267 270 275 280 283 281 284 282 283 285 286 285 286 286 287 286 282 279 277 279 279 279 279 279 281 281 281 282 283 283 281 281 281 281
265 264 265 264 264 266 267 267 268 270 274 280 284 286 286 284 282 280 284 284 286 288 284 285 286 287 284 281 281 281 282 282 282 283 283 282 281 281 282 282 280 279 279
263 264 263 261 262 265 264 266 269 273 277 280 281 281 285 283 280 281 282 282 286 290 289 287 287 288 285 282 283 285 284 283 282 282 283 284 284 282 281 282 281 279 278
264 265 263 260 262 263 264 266 269 272 275 278 279 280 281 280 280 282 282 281 285 289 291 290 288 288 287 283 284 286 286 286 285 285 284 284 285 285 283 281 281 279 277
265 266 264 264 264 265 265 266 270 272 275 277 278 278 280 279 280 281 283 284 285 287 289 290 291 290 287 284 284 286 286 286 286 286 285 284 284 283 283 282 280 279 278
265 266 266 267 266 265 268 269 270 271 274 276 278 277 279 280 281 281 282 282 283 286 287 288 289 290 288 285 286 287 287 287 286 286 285 284 283 282 282 282 279 278 277
264 264 265 267 268 268 269 271 272 272 273 274 277 277 279 281 282 281 281 282 283 284 286 287 289 291 288 287 286 286 286 287 288 286 285 284 283 281 281 280 278 276 275
263 263 264 266 267 268 270 271 272 272 271 272 274 275 278 280 281 282 282 282 283 284 286 286 287 290 290 288 287 287 287 288 289 288 287 285 283 283 281 280 278 276 274
262 262 265 266 266 267 268 272 273 273 271 270 272 274 276 279 280 280 280 281 282 284 285 287 287 289 290 290 289 289 289 289 289 288 287 286 284 283 283 280 278 277 277
260 261 263 266 266 265 267 270 272 272 273 272 272 274 275 277 278 279 279 280 281 283 284 286 286 288 289 289 289 292 292 290 289 288 286 284 283 282 282 280 279 278 277
261 261 263 264 265 267 267 268 270 271 272 273 274 274 277 277 277 277 278 279 280 282 283 285 287 287 288 288 289 290 291 291 290 288 286 284 283 282 281 279 278 278 277
264 264 264 264 264 266 267 268 269 271 272 274 274 274 276 277 277 276 277 277 278 281 284 286 288 288 288 288 288 289 291 291 290 288 285 284 283 282 281 280 279 278 278
266 268 269 268 267 268 269 268 268 270 271 273 274 273 275 277 277 276 276 277 278 280 283 286 288 288 289 290 290 290 289 290 289 288 285 283 282 281 281 280 280 279 279
270 270 270 272 272 270 269 269 269 269 270 272 274 275 276 278 279 277 276 277 279 281 283 285 288 289 289 290 291 291 289 288 287 286 284 283 282 281 280 280 280 280 279
271 271 273 273 275 272 269 269 269 270 271 271 273 276 277 279 280 279 278 278 280 282 284 285 286 287 289 290 289 289 289 289 287 286 284 282 281 280 280 281 281 280 279
271 272 274 275 275 274 272 270 269 270 270 270 272 276 278 280 280 279 279 279 281 282 284 286 287 288 289 289 289 289 289 287 286 285 284 282 281 281 281 281 281 280 279
270 272 273 275 275 275 275 274 272 272 271 271 273 275 276 278 280 280 279 279 280 282 284 286 286 287 288 287 288 288 288 288 286 285 284 284 283 281 281 281 281 280 279
271 272 273 275 275 274 273 274 274 273 273 273 274 275 276 277 279 280 280 279 280 283 284 286 286 287 287 287 287 287 287 286 285 285 285 284 284 282 282 281 280 280 279
272 272 272 272 272 273 273 274 275 275 275 276 275 276 277 278 279 280 279 280 282 283 284 284 284 285 286 286 287 286 285 285 284 284 285 285 284 283 282 280 279 278 278
271 272 273 273 273 274 275 275 276 276 276 276 277 277 277 278 278 278 280 281 282 283 284 284 284 285 285 286 288 288 287 285 284 284 284 285 284 284 283 280 278 277 277
273 273 274 275 275 275 275 275 276 277 276 277 278 278 278 279 279 279 282 283 282 283 285 285 286 287 288 288 288 288 287 284 283 282 283 283 283 283 282 281 278 277 277
274 273 274 275 274 275 275 275 276 277 278 279 278 279 279 280 280 280 282 283 284 285 285 286 287 288 289 288 288 287 286 284 283 282 282 282 283 282 282 281 279 278 278
274 274 273 274 275 276 275 276 277 278 279 279 279 280 280 281 282 281 282 284 284 286 286 286 287 288 288 288 288 287 286 284 283 283 283 282 283 283 282 282 281 280 279
277 278 277 276 277 277 278 278 278 278 279 279 279 280 281 283 283 283 284 286 286 287 287 287 288 289 289 288 287 287 286 284 284 284 284 284 284 283 281 281 280 279 278
279 279 279 279 278 278 279 279 279 279 280 279 278 279 280 282 284 285 286 286 287 286 286 287 288 289 289 288 287 286 285 284 284 285 285 285 284 284 282 281 280 278 277
Height
5858 5857 5857 5857 5856 5856 5855 5855 5855 5854 5854 5853 5853 5852 5851 5850 5849 5848 5847 5846 5845 5844 5843 5843 5842 5841 5840 5839 5839 5838 5837 5836 5836 5835 5834 5833 5832 5831 5830 5829 5828 5827 5826
5855 5855 5854 5854 5854 5854 5853 5853 5852 5852 5851 5851 5850 5849 5848 5848 5847 5846 5845 5844 5843 5842 5841 5840 5839 5838 5837 5836 5835 5835 5834 5833 5832 5831 5830 5830 5829 5827 5826 5825 5824 5823 5822
5852 5852 5851 5851 5851 5851 5850 5850 5850 5849 5848 5848 5847 5846 5845 5844 5843 5843 5842 5841 5840 5839 5838 5837 5836 5835 5834 5833 5832 5832 5831 5830 5828 5827 5826 5825 5824 5823 5822 5821 5820 5819 5818
5848 5848 5848 5848 5848 5848 5847 5847 5847 5846 5845 5845 5844 5843 5842 5841 5841 5840 5839 5838 5837 5835 5834 5833 5832 5831 5830 5829 5828 5828 5826 5825 5824 5823 5822 5821 5819 5818 5818 5816 5815 5814 5813
5844 5844 5844 5844 5844 5844 5844 5843 5843 5842 5842 5841 5841 5840 5839 5838 5837 5836 5835 5834 5833 5832 5831 5830 5828 5827 5826 5825 5824 5823 5822 5821 5820 5819 5817 5816 5814 5813 5812 5811 5810 5809 5808
5839 5840 5840 5840 5840 5840 5840 5840 5839 5839 5838 5838 5837 5836 5835 5835 5834 5833 5832 5831 5829 5828 5827 5826 5825 5823 5822 5821 5820 5819 5818 5817 5815 5814 5812 5811 5810 5808 5807 5806 5805 5804 5803
5835 5835 5835 5835 5835 5836 5836 5835 5835 5835 5835 5834 5833 5833 5832 5831 5830 5829 5828 5827 5825 5824 5823 5822 5820 5819 5818 5817 5815 5814 5813 5812 5810 5809 5807 5806 5804 5803 5801 5800 5799 5798 5798
5831 5831 5831 5831 5831 5831 5831 5831 5831 5830 5830 5830 5829 5828 5827 5826 5826 5824 5823 5822 5821 5820 5819 5817 5816 5815 5813 5812 5811 5809 5808 5806 5805 5803 5801 5800 5798 5797 5795 5794 5793 5792 5792
5826 5826 5826 5826 5826 5826 5826 5826 5826 5825 5825 5825 5824 5823 5823 5822 5821 5820 5819 5818 5817 5816 5814 5813 5812 5810 5809 5807 5806 5804 5803 5801 5799 5797 5795 5793 5792 5790 5789 5788 5787 5786 5786
5821 5821 5821 5821 5821 5821 5821 5820 5820 5820 5819 5819 5819 5818 5817 5816 5816 5815 5814 5813 5812 5811 5809 5808 5807 5805 5804 5802 5800 5799 5797 5795 5793 5791 5789 5787 5785 5784 5782 5781 5780 5779 5779
5815 5815 5815 5815 5815 5815 5815 5815 5815 5814 5814 5813 5813 5812 5812 5811 5810 5809 5808 5807 5806 5805 5804 5803 5801 5799 5798 5796 5795 5793 5790 5788 5786 5784 5782 5780 5778 5777 5776 5774 5773 5772 5771
5810 5810 5810 5810 5810 5809 5809 5809 5809 5808 5808 5807 5807 5806 5806 5805 5804 5803 5803 5802 5801 5799 5798 5797 5795 5794 5792 5790 5788 5786 5784 5782 5779 5777 5775 5773 5771 5770 5769 5768 5767 5765 5764
5804 5804 5804 5804 5804 5803 5803 5803 5803 5802 5802 5801 5801 5800 5800 5799 5798 5797 5796 5795 5794 5793 5792 5790 5789 5787 5785 5783 5781 5779 5777 5774 5772 5770 5768 5766 5764 5763 5762 5761 5760 5758 5757
5798 5798 5798 5798 5797 5797 5797 5797 5796 5796 5795 5795 5794 5794 5793 5792 5792 5791 5790 5789 5788 5787 5785 5784 5782 5780 5778 5776 5774 5772 5769 5767 5764 5762 5760 5759 5758 5756 5755 5754 5753 5751 5750
5791 5791 5791 5791 5791 5790 5790 5790 5789 5789 5789 5788 5788 5787 5787 5786 5785 5784 5783 5782 5781 5780 5778 5777 5775 5773 5771 5769 5766 5764 5762 5759 5757 5755 5753 5752 5750 5749 5748 5747 5746 5744 5743
5785 5785 5784 5784 5784 5783 5783 5783 5783 5782 5782 5781 5781 5780 5780 5779 5778 5777 5776 5775 5773 5772 5771 5769 5768 5766 5764 5761 5759 5756 5754 5752 5749 5748 5746 5744 5743 5742 5740 5739 5738 5737 5735
5778 5778 5778 5777 5777 5776 5776 5775 5775 5775 5774 5774 5773 5773 5772 5771 5770 5769 5768 5767 5766 5765 5763 5762 5760 5758 5756 5754 5751 5749 5746 5744 5742 5740 5738 5737 5735 5734 5732 5731 5730 5728 5727
5771 5771 5770 5770 5769 5769 5768 5767 5767 5767 5766 5766 5766 5765 5764 5764 5763 5761 5760 5759 5758 5757 5755 5754 5752 5750 5747 5745 5743 5740 5738 5735 5733 5731 5730 5728 5727 5725 5724 5722 5721 5720 5718
5763 5763 5763 5762 5761 5761 5760 5760 5759 5759 5758 5758 5757 5757 5756 5755 5754 5753 5752 5751 5750 5748 5747 5745 5743 5741 5739 5736 5734 5731 5729 5727 5725 5723 5721 5719 5718 5716 5714 5713 5712 5711 5709
5756 5755 5755 5754 5753 5753 5752 5752 5751 5751 5750 5749 5749 5748 5747 5747 5746 5745 5743 5742 5741 5739 5738 5736 5734 5732 5730 5727 5725 5722 5720 5718 5716 5714 5712 5710 5709 5707 5705 5703 5702 5701 5700
5748 5747 5746 5745 5745 5745 5744 5743 5743 5742 5742 5741 5740 5739 5739 5738 5737 5736 5735 5733 5732 5731 5729 5727 5725 5722 5720 5718 5715 5712 5710 5708 5706 5704 5703 5701 5699 5697 5695 5693 5692 5691 5689
5740 5739 5738 5737 5737 5736 5736 5735 5735 5734 5733 5732 5731 5731 5730 5729 5728 5727 5725 5724 5723 5721 5719 5717 5715 5713 5711 5708 5705 5703 5700 5698 5696 5695 5693 5691 5689 5687 5686 5684 5682 5681 5679
5731 5730 5729 5729 5728 5728 5727 5727 5726 5725 5724 5724 5723 5722 5721 5720 5718 5717 5716 5715 5713 5711 5709 5707 5706 5703 5701 5698 5695 5693 5690 5688 5686 5685 5683 5681 5679 5678 5676 5675 5673 5671 5670
5722 5721 5721 5720 5719 5719 5718 5718 5717 5716 5715 5715 5714 5713 5712 5710 5709 5708 5706 5705 5703 5702 5700 5698 5696 5693 5691 5688 5686 5683 5681 5679 5677 5675 5673 5671 5669 5667 5666 5664 5663 5661 5660
5714 5713 5712 5711 5711 5710 5709 5709 5708 5707 5706 5705 5704 5703 5702 5701 5700 5698 5697 5695 5694 5692 5690 5688 5686 5683 5681 5679 5676 5673 5671 5669 5667 5665 5663 5661 5659 5657 5655 5654 5652 5651 5650
5705 5704 5704 5703 5702 5701 5700 5700 5699 5697 5696 5696 5695 5694 5693 5692 5691 5689 5688 5686 5684 5682 5680 5678 5676 5673 5671 5669 5666 5663 5661 5659 5657 5655 5653 5651 5649 5647 5645 5643 5642 5640 5639